Time,TemperatureF,DewpointF,PressureIn,WindDirection,WindDirectionDegrees,WindSpeedMPH,WindSpeedGustMPH,Humidity,HourlyPrecipIn,Conditions,Clouds,dailyrainin,SoftwareType,DateUTC
2013-06-01 00:00:00,69.3,66.6,29.86,SSW,203,2.0,2.0,91,0.00,,,0.00,Wunderground v.1.15,2013-06-01 04:00:00,
2013-06-01 00:01:00,69.3,66.6,29.85,SSW,205,2.0,4.0,91,0.00,,,0.00,Wunderground v.1.15,2013-06-01 04:01:00,
2013-06-01 00:03:00,69.3,66.6,29.86,SW,215,1.0,4.0,91,0.00,,,0.00,Wunderground v.1.15,2013-06-01 04:03:00,
2013-06-01 00:05:00,69.3,66.6,29.85,SW,215,1.0,4.0,91,0.00,,,0.00,Wunderground v.1.15,2013-06-01 04:05:00,
2013-06-01 00:10:00,69.3,66.6,29.86,SW,215,1.0,1.0,91,0.00,,,0.00,Wunderground v.1.15,2013-06-01 04:10:00,
2013-06-01 00:13:00,69.3,66.6,29.85,SW,214,0.0,1.0,91,0.00,,,0.00,Wunderground v.1.15,2013-06-01 04:13:00,
2013-06-01 00:19:00,69.2,66.5,29.86,SW,215,0.0,0.0,91,0.00,,,0.00,Wunderground v.1.15,2013-06-01 04:19:00,
2013-06-01 00:24:00,69.2,66.5,29.85,SW,214,0.0,0.0,91,0.00,,,0.00,Wunderground v.1.15,2013-06-01 04:24:00,
2013-06-01 00:30:00,69.1,66.4,29.84,SW,215,0.0,0.0,91,0.00,,,0.00,Wunderground v.1.15,2013-06-01 04:30:00,
2013-06-01 00:35:00,69.2,66.8,29.84,SW,214,0.0,0.0,92,0.00,,,0.00,Wunderground v.1.15,2013-06-01 04:35:00,
2013-06-01 00:41:00,69.1,66.7,29.84,SW,215,0.0,0.0,92,0.00,,,0.00,Wunderground v.1.15,2013-06-01 04:41:00,
2013-06-01 00:46:00,69.1,66.7,29.84,SW,214,0.0,0.0,92,0.00,,,0.00,Wunderground v.1.15,2013-06-01 04:46:00,
2013-06-01 00:52:00,69.1,66.7,29.83,SW,215,0.0,0.0,92,0.00,,,0.00,Wunderground v.1.15,2013-06-01 04:52:00,
2013-06-01 00:58:00,69.0,66.6,29.84,SW,215,0.0,0.0,92,0.00,,,0.00,Wunderground v.1.15,2013-06-01 04:58:00,
2013-06-01 01:03:00,69.0,66.6,29.84,SW,214,0.0,0.0,92,0.00,,,0.00,Wunderground v.1.15,2013-06-01 05:03:00,
2013-06-01 01:09:00,69.0,66.6,29.83,SW,215,0.0,0.0,92,0.00,,,0.00,Wunderground v.1.15,2013-06-01 05:09:00,
2013-06-01 01:14:00,68.9,66.5,29.83,SW,215,0.0,0.0,92,0.00,,,0.00,Wunderground v.1.15,2013-06-01 05:14:00,
2013-06-01 01:20:00,68.9,66.5,29.81,SW,215,0.0,2.0,92,0.00,,,0.00,Wunderground v.1.15,2013-06-01 05:20:00,
2013-06-01 01:26:00,68.9,66.5,29.80,SSW,211,0.0,2.0,92,0.00,,,0.00,Wunderground v.1.15,2013-06-01 05:26:00,
2013-06-01 01:32:00,68.8,66.4,29.80,SSW,210,0.0,1.0,92,0.00,,,0.00,Wunderground v.1.15,2013-06-01 05:32:00,
2013-06-01 01:37:00,68.8,66.7,29.80,SSW,210,0.0,1.0,93,0.00,,,0.00,Wunderground v.1.15,2013-06-01 05:37:00,
2013-06-01 01:42:00,68.8,66.7,29.80,SSW,211,0.0,0.0,93,0.00,,,0.00,Wunderground v.1.15,2013-06-01 05:42:00,
2013-06-01 01:48:00,68.8,66.7,29.79,SSW,200,0.0,5.0,93,0.00,,,0.00,Wunderground v.1.15,2013-06-01 05:48:00,
2013-06-01 01:53:00,68.8,66.7,29.78,SSW,202,1.0,4.0,93,0.00,,,0.00,Wunderground v.1.15,2013-06-01 05:53:00,
2013-06-01 01:59:00,68.9,66.5,29.79,SSW,203,1.0,1.0,92,0.00,,,0.00,Wunderground v.1.15,2013-06-01 05:59:00,
2013-06-01 02:04:00,69.0,66.6,29.79,SW,217,1.0,4.0,92,0.00,,,0.00,Wunderground v.1.15,2013-06-01 06:04:00,
2013-06-01 02:10:00,69.1,66.7,29.79,SW,217,1.0,1.0,92,0.00,,,0.00,Wunderground v.1.15,2013-06-01 06:10:00,
2013-06-01 02:15:00,69.2,66.8,29.80,SSW,202,1.0,4.0,92,0.00,,,0.00,Wunderground v.1.15,2013-06-01 06:15:00,
2013-06-01 02:21:00,69.2,66.8,29.79,SSW,205,1.0,3.0,92,0.00,,,0.00,Wunderground v.1.15,2013-06-01 06:21:00,
2013-06-01 02:27:00,69.2,66.8,29.79,SW,221,1.0,3.0,92,0.00,,,0.00,Wunderground v.1.15,2013-06-01 06:27:00,
2013-06-01 02:32:00,69.2,66.8,29.78,SW,221,0.0,1.0,92,0.00,,,0.00,Wunderground v.1.15,2013-06-01 06:32:00,
2013-06-01 02:38:00,69.1,66.4,29.78,SW,217,0.0,3.0,91,0.00,,,0.00,Wunderground v.1.15,2013-06-01 06:38:00,
2013-06-01 02:43:00,68.9,66.2,29.78,SW,217,0.0,0.0,91,0.00,,,0.00,Wunderground v.1.15,2013-06-01 06:43:00,
2013-06-01 02:49:00,68.9,66.2,29.78,WNW,284,1.0,1.0,91,0.00,,,0.00,Wunderground v.1.15,2013-06-01 06:49:00,
2013-06-01 02:55:00,68.8,65.7,29.78,WNW,284,0.0,1.0,90,0.00,,,0.00,Wunderground v.1.15,2013-06-01 06:55:00,
2013-06-01 03:01:00,68.8,65.7,29.78,WNW,282,0.0,2.0,90,0.00,,,0.00,Wunderground v.1.15,2013-06-01 07:01:00,
2013-06-01 03:06:00,68.7,65.6,29.78,WNW,282,0.0,2.0,90,0.00,,,0.00,Wunderground v.1.15,2013-06-01 07:06:00,
2013-06-01 03:12:00,68.6,65.5,29.77,West,281,0.0,0.0,90,0.00,,,0.00,Wunderground v.1.15,2013-06-01 07:12:00,
2013-06-01 03:18:00,68.5,65.4,29.76,WNW,282,0.0,0.0,90,0.00,,,0.00,Wunderground v.1.15,2013-06-01 07:18:00,
2013-06-01 03:23:00,68.4,65.4,29.76,West,281,0.0,0.0,90,0.00,,,0.00,Wunderground v.1.15,2013-06-01 07:23:00,
2013-06-01 03:29:00,68.3,65.3,29.77,WNW,282,0.0,0.0,90,0.00,,,0.00,Wunderground v.1.15,2013-06-01 07:29:00,
2013-06-01 03:34:00,68.1,65.1,29.77,WNW,282,0.0,1.0,90,0.00,,,0.00,Wunderground v.1.15,2013-06-01 07:34:00,
2013-06-01 03:40:00,67.9,64.9,29.78,WNW,282,0.0,0.0,90,0.00,,,0.00,Wunderground v.1.15,2013-06-01 07:40:00,
2013-06-01 03:45:00,67.7,64.7,29.78,West,281,0.0,0.0,90,0.00,,,0.00,Wunderground v.1.15,2013-06-01 07:45:00,
2013-06-01 03:50:00,67.6,64.9,29.78,SSW,211,0.0,0.0,91,0.00,,,0.00,Wunderground v.1.15,2013-06-01 07:50:00,
2013-06-01 03:55:00,67.6,64.6,29.78,South,186,1.0,6.0,90,0.00,,,0.00,Wunderground v.1.15,2013-06-01 07:55:00,
2013-06-01 04:01:00,67.6,64.2,29.78,SSW,196,2.0,2.0,89,0.00,,,0.00,Wunderground v.1.15,2013-06-01 08:01:00,
2013-06-01 04:06:00,67.7,64.0,29.78,WSW,237,1.0,4.0,88,0.00,,,0.00,Wunderground v.1.15,2013-06-01 08:06:00,
2013-06-01 04:12:00,67.6,63.3,29.78,SSW,205,1.0,9.0,86,0.00,,,0.00,Wunderground v.1.15,2013-06-01 08:12:00,
2013-06-01 04:18:00,67.7,63.4,29.80,SSW,199,1.0,9.0,86,0.00,,,0.00,Wunderground v.1.15,2013-06-01 08:18:00,
2013-06-01 04:23:00,67.7,63.0,29.80,SSW,210,2.0,5.0,85,0.00,,,0.00,Wunderground v.1.15,2013-06-01 08:23:00,
2013-06-01 04:29:00,67.8,63.1,29.79,SSW,207,3.0,5.0,85,0.00,,,0.00,Wunderground v.1.15,2013-06-01 08:29:00,
2013-06-01 04:34:00,67.7,63.0,29.80,SW,228,4.0,5.0,85,0.00,,,0.00,Wunderground v.1.15,2013-06-01 08:34:00,
2013-06-01 04:40:00,67.5,62.8,29.80,West,273,2.0,3.0,85,0.00,,,0.00,Wunderground v.1.15,2013-06-01 08:40:00,
2013-06-01 04:45:00,67.2,62.9,29.81,WSW,244,2.0,4.0,86,0.00,,,0.01,Wunderground v.1.15,2013-06-01 08:45:00,
2013-06-01 04:51:00,66.8,63.1,29.80,WSW,248,2.0,6.0,88,0.09,,,0.02,Wunderground v.1.15,2013-06-01 08:51:00,
2013-06-01 04:56:00,66.3,63.0,29.81,NW,317,3.0,6.0,89,0.19,,,0.03,Wunderground v.1.15,2013-06-01 08:56:00,
2013-06-01 05:01:00,65.9,62.9,29.81,West,273,3.0,6.0,90,0.25,,,0.06,Wunderground v.1.15,2013-06-01 09:01:00,
2013-06-01 05:08:00,65.4,62.7,29.81,SW,232,3.0,14.0,91,0.32,,,0.10,Wunderground v.1.15,2013-06-01 09:08:00,
2013-06-01 05:14:00,65.2,62.8,29.81,WSW,257,4.0,7.0,92,0.30,,,0.13,Wunderground v.1.15,2013-06-01 09:14:00,
2013-06-01 05:19:00,65.0,62.9,29.81,SSE,167,3.0,5.0,93,0.31,,,0.16,Wunderground v.1.15,2013-06-01 09:19:00,
2013-06-01 05:25:00,64.9,62.8,29.81,West,267,3.0,6.0,93,0.20,,,0.18,Wunderground v.1.15,2013-06-01 09:25:00,
2013-06-01 05:30:00,64.8,63.0,29.81,West,274,2.0,3.0,94,0.11,,,0.19,Wunderground v.1.15,2013-06-01 09:30:00,
2013-06-01 05:35:00,64.7,62.9,29.80,WSW,250,2.0,6.0,94,0.08,,,0.19,Wunderground v.1.15,2013-06-01 09:35:00,
2013-06-01 05:41:00,64.7,62.9,29.80,SW,217,2.0,2.0,94,0.05,,,0.20,Wunderground v.1.15,2013-06-01 09:41:00,
2013-06-01 05:46:00,64.6,62.8,29.80,SW,218,1.0,3.0,94,0.05,,,0.20,Wunderground v.1.15,2013-06-01 09:46:00,
2013-06-01 05:52:00,64.5,62.7,29.78,SSW,210,1.0,1.0,94,0.05,,,0.21,Wunderground v.1.15,2013-06-01 09:52:00,
2013-06-01 05:58:00,64.4,62.6,29.77,SSW,213,1.0,3.0,94,0.05,,,0.21,Wunderground v.1.15,2013-06-01 09:58:00,
2013-06-01 06:03:00,64.4,62.9,29.77,SW,235,1.0,4.0,95,0.05,,,0.21,Wunderground v.1.15,2013-06-01 10:03:00,
2013-06-01 06:09:00,64.3,62.8,29.76,SW,225,1.0,1.0,95,0.00,,,0.21,Wunderground v.1.15,2013-06-01 10:09:00,
2013-06-01 06:14:00,64.3,62.8,29.75,SW,225,0.0,1.0,95,0.00,,,0.21,Wunderground v.1.15,2013-06-01 10:14:00,
2013-06-01 06:20:00,64.2,62.7,29.75,SW,225,0.0,1.0,95,0.00,,,0.21,Wunderground v.1.15,2013-06-01 10:20:00,
2013-06-01 06:25:00,64.2,62.7,29.75,SW,225,1.0,3.0,95,0.00,,,0.21,Wunderground v.1.15,2013-06-01 10:25:00,
2013-06-01 06:31:00,64.1,62.6,29.76,SW,225,0.0,0.0,95,0.00,,,0.21,Wunderground v.1.15,2013-06-01 10:31:00,
2013-06-01 06:36:00,64.1,62.6,29.76,SW,228,0.0,1.0,95,0.00,,,0.21,Wunderground v.1.15,2013-06-01 10:36:00,
2013-06-01 06:42:00,64.1,62.6,29.76,SW,225,1.0,4.0,95,0.00,,,0.21,Wunderground v.1.15,2013-06-01 10:42:00,
2013-06-01 06:48:00,64.0,62.5,29.76,WSW,242,1.0,4.0,95,0.00,,,0.21,Wunderground v.1.15,2013-06-01 10:48:00,
2013-06-01 06:54:00,64.1,62.6,29.76,SW,224,1.0,6.0,95,0.00,,,0.21,Wunderground v.1.15,2013-06-01 10:54:00,
2013-06-01 06:59:00,64.1,62.6,29.77,SW,214,2.0,2.0,95,0.00,,,0.21,Wunderground v.1.15,2013-06-01 10:59:00,
2013-06-01 07:05:00,64.2,62.7,29.77,SSW,205,4.0,11.0,95,0.00,,,0.21,Wunderground v.1.15,2013-06-01 11:05:00,
2013-06-01 07:11:00,64.3,63.1,29.77,SSW,204,5.0,6.0,96,0.00,,,0.21,Wunderground v.1.15,2013-06-01 11:11:00,
2013-06-01 07:17:00,64.4,63.2,29.77,SW,216,5.0,10.0,96,0.00,,,0.21,Wunderground v.1.15,2013-06-01 11:17:00,
2013-06-01 07:22:00,64.5,63.3,29.77,SSW,213,5.0,6.0,96,0.00,,,0.21,Wunderground v.1.15,2013-06-01 11:22:00,
2013-06-01 07:28:00,64.6,63.4,29.77,SW,217,3.0,6.0,96,0.00,,,0.21,Wunderground v.1.15,2013-06-01 11:28:00,
2013-06-01 07:33:00,64.7,63.2,29.77,South,182,4.0,9.0,95,0.00,,,0.21,Wunderground v.1.15,2013-06-01 11:33:00,
2013-06-01 07:39:00,64.8,63.3,29.77,South,178,4.0,6.0,95,0.00,,,0.21,Wunderground v.1.15,2013-06-01 11:39:00,
2013-06-01 07:44:00,64.7,63.2,29.77,South,171,4.0,7.0,95,0.00,,,0.21,Wunderground v.1.15,2013-06-01 11:44:00,
2013-06-01 07:50:00,64.7,63.2,29.77,South,188,6.0,6.0,95,0.00,,,0.21,Wunderground v.1.15,2013-06-01 11:50:00,
2013-06-01 07:55:00,64.6,63.1,29.77,SSW,200,5.0,9.0,95,0.00,,,0.21,Wunderground v.1.15,2013-06-01 11:55:00,
2013-06-01 08:01:00,64.5,62.7,29.76,SW,223,4.0,6.0,94,0.00,,,0.21,Wunderground v.1.15,2013-06-01 12:01:00,
2013-06-01 08:06:00,64.6,62.8,29.76,SSW,203,4.0,6.0,94,0.00,,,0.21,Wunderground v.1.15,2013-06-01 12:06:00,
2013-06-01 08:11:00,64.6,62.8,29.75,South,188,3.0,6.0,94,0.00,,,0.21,Wunderground v.1.15,2013-06-01 12:11:00,
2013-06-01 08:16:00,64.7,62.9,29.74,South,183,4.0,6.0,94,0.00,,,0.21,Wunderground v.1.15,2013-06-01 12:16:00,
2013-06-01 08:23:00,64.8,63.0,29.74,SW,233,4.0,6.0,94,0.00,,,0.21,Wunderground v.1.15,2013-06-01 12:23:00,
2013-06-01 08:29:00,64.9,62.8,29.74,SW,236,4.0,4.0,93,0.00,,,0.21,Wunderground v.1.15,2013-06-01 12:29:00,
2013-06-01 08:34:00,65.2,63.1,29.74,South,175,4.0,9.0,93,0.00,,,0.21,Wunderground v.1.15,2013-06-01 12:34:00,
2013-06-01 08:40:00,65.4,63.3,29.74,SSW,194,4.0,6.0,93,0.00,,,0.21,Wunderground v.1.15,2013-06-01 12:40:00,
2013-06-01 08:45:00,65.6,63.5,29.74,SSW,212,4.0,11.0,93,0.00,,,0.21,Wunderground v.1.15,2013-06-01 12:45:00,
2013-06-01 08:51:00,65.8,63.7,29.73,SW,214,6.0,9.0,93,0.00,,,0.21,Wunderground v.1.15,2013-06-01 12:51:00,
2013-06-01 08:56:00,66.0,63.9,29.73,South,171,6.0,9.0,93,0.00,,,0.21,Wunderground v.1.15,2013-06-01 12:56:00,
2013-06-01 09:02:00,66.2,63.8,29.73,SSW,203,5.0,9.0,92,0.00,,,0.21,Wunderground v.1.15,2013-06-01 13:02:00,
2013-06-01 09:08:00,66.4,64.3,29.74,SW,233,3.0,9.0,93,0.00,,,0.21,Wunderground v.1.15,2013-06-01 13:08:00,
2013-06-01 09:13:00,66.6,64.2,29.75,ESE,113,2.0,5.0,92,0.00,,,0.21,Wunderground v.1.15,2013-06-01 13:13:00,
2013-06-01 09:19:00,66.8,64.4,29.75,SW,219,3.0,3.0,92,0.00,,,0.21,Wunderground v.1.15,2013-06-01 13:19:00,
2013-06-01 09:24:00,67.0,64.6,29.74,SSW,197,3.0,9.0,92,0.00,,,0.21,Wunderground v.1.15,2013-06-01 13:24:00,
2013-06-01 09:30:00,67.2,64.5,29.74,SSW,198,4.0,12.0,91,0.00,,,0.21,Wunderground v.1.15,2013-06-01 13:30:00,
2013-06-01 09:35:00,67.6,64.9,29.74,SSW,210,6.0,13.0,91,0.00,,,0.21,Wunderground v.1.15,2013-06-01 13:35:00,
2013-06-01 09:41:00,68.0,65.0,29.74,SW,231,6.0,8.0,90,0.00,,,0.21,Wunderground v.1.15,2013-06-01 13:41:00,
2013-06-01 09:47:00,68.3,64.9,29.74,SSW,200,7.0,11.0,89,0.00,,,0.21,Wunderground v.1.15,2013-06-01 13:47:00,
2013-06-01 09:52:00,68.5,65.4,29.74,SSW,207,6.0,7.0,90,0.00,,,0.21,Wunderground v.1.15,2013-06-01 13:52:00,
2013-06-01 09:57:00,68.9,65.8,29.74,West,267,4.0,7.0,90,0.00,,,0.21,Wunderground v.1.15,2013-06-01 13:57:00,
2013-06-01 10:02:00,69.2,65.5,29.74,South,190,3.0,7.0,88,0.00,,,0.21,Wunderground v.1.15,2013-06-01 14:02:00,
2013-06-01 10:08:00,69.3,65.6,29.75,SSW,200,3.0,3.0,88,0.00,,,0.21,Wunderground v.1.15,2013-06-01 14:08:00,
2013-06-01 10:13:00,69.0,65.0,29.77,WNW,282,3.0,6.0,87,0.00,,,0.21,Wunderground v.1.15,2013-06-01 14:13:00,
2013-06-01 10:19:00,68.9,65.2,29.77,WNW,287,2.0,7.0,88,0.00,,,0.21,Wunderground v.1.15,2013-06-01 14:19:00,
2013-06-01 10:26:00,68.7,65.0,29.77,West,267,3.0,7.0,88,0.00,,,0.21,Wunderground v.1.15,2013-06-01 14:26:00,
2013-06-01 10:33:00,68.8,65.1,29.77,South,191,1.0,2.0,88,0.00,,,0.21,Wunderground v.1.15,2013-06-01 14:33:00,
2013-06-01 10:38:00,68.9,65.2,29.77,West,263,1.0,2.0,88,0.00,,,0.21,Wunderground v.1.15,2013-06-01 14:38:00,
2013-06-01 10:46:00,68.9,65.2,29.77,West,272,1.0,2.0,88,0.00,,,0.21,Wunderground v.1.15,2013-06-01 14:46:00,
2013-06-01 10:52:00,68.8,65.1,29.77,West,275,1.0,4.0,88,0.00,,,0.21,Wunderground v.1.15,2013-06-01 14:52:00,
2013-06-01 10:58:00,68.8,65.1,29.77,West,277,1.0,8.0,88,0.00,,,0.21,Wunderground v.1.15,2013-06-01 14:58:00,
2013-06-01 11:04:00,68.8,65.4,29.77,West,274,2.0,2.0,89,0.00,,,0.21,Wunderground v.1.15,2013-06-01 15:04:00,
2013-06-01 11:10:00,68.8,65.4,29.77,West,276,1.0,2.0,89,0.00,,,0.21,Wunderground v.1.15,2013-06-01 15:10:00,
2013-06-01 11:15:00,68.9,65.2,29.78,West,275,3.0,5.0,88,0.00,,,0.21,Wunderground v.1.15,2013-06-01 15:15:00,
2013-06-01 11:20:00,69.5,66.1,29.78,WNW,284,3.0,3.0,89,0.00,,,0.21,Wunderground v.1.15,2013-06-01 15:20:00,
2013-06-01 11:25:00,70.4,66.7,29.78,West,265,1.0,3.0,88,0.00,,,0.21,Wunderground v.1.15,2013-06-01 15:25:00,
2013-06-01 11:30:00,71.2,66.8,29.78,WNW,288,1.0,4.0,86,0.00,,,0.21,Wunderground v.1.15,2013-06-01 15:30:00,
2013-06-01 11:36:00,71.6,66.5,29.78,West,267,2.0,7.0,84,0.00,,,0.21,Wunderground v.1.15,2013-06-01 15:36:00,
2013-06-01 11:41:00,72.0,66.6,29.78,WNW,291,2.0,3.0,83,0.00,,,0.21,Wunderground v.1.15,2013-06-01 15:41:00,
2013-06-01 11:46:00,72.5,67.4,29.78,SW,222,2.0,5.0,84,0.00,,,0.21,Wunderground v.1.15,2013-06-01 15:46:00,
2013-06-01 11:53:00,72.7,67.2,29.78,West,281,2.0,3.0,83,0.00,,,0.21,Wunderground v.1.15,2013-06-01 15:53:00,
2013-06-01 11:58:00,73.1,66.9,29.78,WNW,283,2.0,3.0,81,0.00,,,0.21,Wunderground v.1.15,2013-06-01 15:58:00,
2013-06-01 12:04:00,73.4,67.2,29.78,SSW,213,2.0,6.0,81,0.00,,,0.21,Wunderground v.1.15,2013-06-01 16:04:00,
2013-06-01 12:10:00,73.8,68.0,29.78,WNW,290,3.0,6.0,82,0.00,,,0.21,Wunderground v.1.15,2013-06-01 16:10:00,
2013-06-01 12:15:00,73.9,67.7,29.78,SW,234,3.0,6.0,81,0.00,,,0.21,Wunderground v.1.15,2013-06-01 16:15:00,
2013-06-01 12:21:00,74.0,67.4,29.78,WNW,284,3.0,7.0,80,0.00,,,0.21,Wunderground v.1.15,2013-06-01 16:21:00,
2013-06-01 12:26:00,74.1,67.2,29.78,SSW,204,2.0,7.0,79,0.00,,,0.21,Wunderground v.1.15,2013-06-01 16:26:00,
2013-06-01 12:31:00,74.1,67.2,29.78,West,270,2.0,2.0,79,0.00,,,0.21,Wunderground v.1.15,2013-06-01 16:31:00,
2013-06-01 12:36:00,74.0,66.7,29.77,West,264,1.0,6.0,78,0.00,,,0.21,Wunderground v.1.15,2013-06-01 16:36:00,
2013-06-01 12:42:00,73.7,66.8,29.77,WNW,296,2.0,5.0,79,0.00,,,0.21,Wunderground v.1.15,2013-06-01 16:42:00,
2013-06-01 12:48:00,74.1,67.5,29.77,WNW,296,3.0,5.0,80,0.00,,,0.21,Wunderground v.1.15,2013-06-01 16:48:00,
2013-06-01 12:53:00,74.6,67.3,29.77,South,181,2.0,3.0,78,0.00,,,0.21,Wunderground v.1.15,2013-06-01 16:53:00,
2013-06-01 12:59:00,75.0,66.9,29.77,WNW,288,2.0,2.0,76,0.00,,,0.21,Wunderground v.1.15,2013-06-01 16:59:00,
2013-06-01 13:05:00,75.5,67.8,29.77,WNW,286,2.0,4.0,77,0.00,,,0.21,Wunderground v.1.15,2013-06-01 17:05:00,
2013-06-01 13:10:00,75.9,66.6,29.76,West,280,3.0,9.0,73,0.00,,,0.21,Wunderground v.1.15,2013-06-01 17:10:00,
2013-06-01 13:16:00,75.9,66.6,29.76,West,271,4.0,9.0,73,0.00,,,0.21,Wunderground v.1.15,2013-06-01 17:16:00,
2013-06-01 13:22:00,75.6,67.1,29.76,WNW,284,4.0,9.0,75,0.00,,,0.21,Wunderground v.1.15,2013-06-01 17:22:00,
2013-06-01 13:28:00,76.0,67.5,29.76,WNW,282,4.0,9.0,75,0.00,,,0.21,Wunderground v.1.15,2013-06-01 17:28:00,
2013-06-01 13:33:00,76.1,66.8,29.76,SSW,200,3.0,6.0,73,0.00,,,0.21,Wunderground v.1.15,2013-06-01 17:33:00,
2013-06-01 13:39:00,76.5,68.0,29.76,WNW,286,3.0,3.0,75,0.00,,,0.21,Wunderground v.1.15,2013-06-01 17:39:00,
2013-06-01 13:44:00,76.8,66.3,29.76,SW,234,3.0,7.0,70,0.00,,,0.21,Wunderground v.1.15,2013-06-01 17:44:00,
2013-06-01 13:50:00,77.1,67.8,29.76,South,183,3.0,6.0,73,0.00,,,0.21,Wunderground v.1.15,2013-06-01 17:50:00,
2013-06-01 13:55:00,77.1,66.6,29.76,West,267,3.0,6.0,70,0.00,,,0.21,Wunderground v.1.15,2013-06-01 17:55:00,
2013-06-01 14:01:00,77.1,66.1,29.76,SW,232,5.0,10.0,69,0.00,,,0.21,Wunderground v.1.15,2013-06-01 18:01:00,
2013-06-01 14:06:00,77.3,67.2,29.76,South,184,5.0,11.0,71,0.00,,,0.21,Wunderground v.1.15,2013-06-01 18:06:00,
2013-06-01 14:12:00,77.5,66.9,29.76,West,273,4.0,6.0,70,0.00,,,0.21,Wunderground v.1.15,2013-06-01 18:12:00,
2013-06-01 14:18:00,77.6,67.0,29.76,West,280,3.0,6.0,70,0.00,,,0.21,Wunderground v.1.15,2013-06-01 18:18:00,
2013-06-01 14:23:00,77.6,66.6,29.76,WNW,302,3.0,10.0,69,0.00,,,0.21,Wunderground v.1.15,2013-06-01 18:23:00,
2013-06-01 14:28:00,77.6,65.8,29.76,WSW,254,4.0,10.0,67,0.00,,,0.21,Wunderground v.1.15,2013-06-01 18:28:00,
2013-06-01 14:34:00,77.7,65.9,29.76,West,269,3.0,6.0,67,0.00,,,0.21,Wunderground v.1.15,2013-06-01 18:34:00,
2013-06-01 14:39:00,77.6,67.0,29.76,WNW,283,3.0,4.0,70,0.00,,,0.21,Wunderground v.1.15,2013-06-01 18:39:00,
2013-06-01 14:45:00,77.8,66.8,29.76,South,191,3.0,7.0,69,0.00,,,0.21,Wunderground v.1.15,2013-06-01 18:45:00,
2013-06-01 14:50:00,77.9,66.1,29.76,West,281,3.0,6.0,67,0.00,,,0.21,Wunderground v.1.15,2013-06-01 18:50:00,
2013-06-01 14:56:00,78.2,66.8,29.76,West,271,3.0,6.0,68,0.00,,,0.21,Wunderground v.1.15,2013-06-01 18:56:00,
2013-06-01 15:02:00,78.2,66.8,29.76,SSW,199,3.0,4.0,68,0.00,,,0.21,Wunderground v.1.15,2013-06-01 19:02:00,
2013-06-01 15:08:00,77.9,65.6,29.76,West,276,2.0,6.0,66,0.00,,,0.21,Wunderground v.1.15,2013-06-01 19:08:00,
2013-06-01 15:13:00,77.3,65.5,29.76,West,272,4.0,6.0,67,0.00,,,0.21,Wunderground v.1.15,2013-06-01 19:13:00,
2013-06-01 15:19:00,77.2,66.2,29.76,West,263,3.0,3.0,69,0.00,,,0.21,Wunderground v.1.15,2013-06-01 19:19:00,
2013-06-01 15:24:00,77.4,66.4,29.76,WNW,284,2.0,5.0,69,0.00,,,0.21,Wunderground v.1.15,2013-06-01 19:24:00,
2013-06-01 15:29:00,77.5,66.1,29.76,WSW,242,1.0,1.0,68,0.00,,,0.21,Wunderground v.1.15,2013-06-01 19:29:00,
2013-06-01 15:35:00,77.1,65.7,29.76,WSW,251,2.0,5.0,68,0.00,,,0.21,Wunderground v.1.15,2013-06-01 19:35:00,
2013-06-01 15:41:00,76.7,65.8,29.75,West,279,2.0,2.0,69,0.00,,,0.21,Wunderground v.1.15,2013-06-01 19:41:00,
2013-06-01 15:46:00,76.5,65.6,29.75,WSW,247,2.0,2.0,69,0.00,,,0.21,Wunderground v.1.15,2013-06-01 19:46:00,
2013-06-01 15:52:00,76.5,66.0,29.75,SSW,213,1.0,1.0,70,0.00,,,0.21,Wunderground v.1.15,2013-06-01 19:52:00,
2013-06-01 15:58:00,76.4,65.9,29.75,WSW,242,1.0,2.0,70,0.00,,,0.21,Wunderground v.1.15,2013-06-01 19:58:00,
2013-06-01 16:03:00,76.4,65.9,29.75,WNW,284,1.0,4.0,70,0.00,,,0.21,Wunderground v.1.15,2013-06-01 20:03:00,
2013-06-01 16:09:00,76.6,66.1,29.75,SSW,200,1.0,1.0,70,0.00,,,0.21,Wunderground v.1.15,2013-06-01 20:09:00,
2013-06-01 16:14:00,76.6,66.1,29.75,West,266,1.0,6.0,70,0.00,,,0.21,Wunderground v.1.15,2013-06-01 20:14:00,
2013-06-01 16:20:00,76.6,65.7,29.75,West,267,2.0,3.0,69,0.00,,,0.21,Wunderground v.1.15,2013-06-01 20:20:00,
2013-06-01 16:25:00,76.7,66.6,29.75,SW,227,3.0,6.0,71,0.00,,,0.21,Wunderground v.1.15,2013-06-01 20:25:00,
2013-06-01 16:31:00,76.9,66.4,29.75,SSW,213,2.0,3.0,70,0.00,,,0.21,Wunderground v.1.15,2013-06-01 20:31:00,
2013-06-01 16:36:00,76.9,66.0,29.75,WSW,245,1.0,9.0,69,0.00,,,0.21,Wunderground v.1.15,2013-06-01 20:36:00,
2013-06-01 16:41:00,76.8,66.3,29.75,West,269,2.0,2.0,70,0.00,,,0.21,Wunderground v.1.15,2013-06-01 20:41:00,
2013-06-01 16:47:00,76.8,65.9,29.75,West,259,1.0,2.0,69,0.00,,,0.21,Wunderground v.1.15,2013-06-01 20:47:00,
2013-06-01 16:52:00,76.7,65.3,29.75,WNW,294,2.0,4.0,68,0.00,,,0.21,Wunderground v.1.15,2013-06-01 20:52:00,
2013-06-01 16:58:00,76.6,66.1,29.75,SW,228,3.0,10.0,70,0.00,,,0.21,Wunderground v.1.15,2013-06-01 20:58:00,
2013-06-01 17:03:00,76.7,65.8,29.75,SW,219,2.0,4.0,69,0.00,,,0.21,Wunderground v.1.15,2013-06-01 21:03:00,
2013-06-01 17:09:00,76.6,65.2,29.75,West,273,2.0,2.0,68,0.00,,,0.21,Wunderground v.1.15,2013-06-01 21:09:00,
2013-06-01 17:14:00,76.2,65.3,29.75,West,271,3.0,11.0,69,0.00,,,0.21,Wunderground v.1.15,2013-06-01 21:14:00,
2013-06-01 17:20:00,75.9,65.0,29.75,West,273,3.0,3.0,69,0.00,,,0.21,Wunderground v.1.15,2013-06-01 21:20:00,
2013-06-01 17:25:00,75.8,65.7,29.75,West,267,2.0,4.0,71,0.00,,,0.21,Wunderground v.1.15,2013-06-01 21:25:00,
2013-06-01 17:31:00,75.4,64.9,29.75,SW,234,2.0,2.0,70,0.00,,,0.21,Wunderground v.1.15,2013-06-01 21:31:00,
2013-06-01 17:36:00,75.2,64.7,29.75,SW,217,2.0,3.0,70,0.00,,,0.21,Wunderground v.1.15,2013-06-01 21:36:00,
2013-06-01 17:41:00,74.9,64.9,29.76,WNW,283,2.0,7.0,71,0.00,,,0.21,Wunderground v.1.15,2013-06-01 21:41:00,
2013-06-01 17:46:00,74.7,65.1,29.76,West,268,2.0,7.0,72,0.00,,,0.21,Wunderground v.1.15,2013-06-01 21:46:00,
2013-06-01 17:52:00,74.6,64.6,29.76,West,269,3.0,4.0,71,0.00,,,0.21,Wunderground v.1.15,2013-06-01 21:52:00,
2013-06-01 17:58:00,74.6,64.6,29.76,SW,218,2.0,11.0,71,0.00,,,0.21,Wunderground v.1.15,2013-06-01 21:58:00,
2013-06-01 18:03:00,74.6,64.6,29.76,WSW,244,2.0,9.0,71,0.00,,,0.21,Wunderground v.1.15,2013-06-01 22:03:00,
2013-06-01 18:09:00,74.5,64.9,29.75,WSW,254,1.0,1.0,72,0.00,,,0.21,Wunderground v.1.15,2013-06-01 22:09:00,
2013-06-01 18:14:00,74.4,65.2,29.75,SW,221,1.0,4.0,73,0.00,,,0.21,Wunderground v.1.15,2013-06-01 22:14:00,
2013-06-01 18:20:00,74.1,64.9,29.75,SW,225,1.0,1.0,73,0.00,,,0.21,Wunderground v.1.15,2013-06-01 22:20:00,
2013-06-01 18:25:00,74.0,65.2,29.74,SSW,197,1.0,6.0,74,0.00,,,0.21,Wunderground v.1.15,2013-06-01 22:25:00,
2013-06-01 18:31:00,73.8,64.6,29.74,SSW,200,1.0,1.0,73,0.00,,,0.21,Wunderground v.1.15,2013-06-01 22:31:00,
2013-06-01 18:36:00,73.5,64.7,29.74,West,275,1.0,5.0,74,0.00,,,0.21,Wunderground v.1.15,2013-06-01 22:36:00,
2013-06-01 18:42:00,73.3,64.5,29.74,West,272,0.0,1.0,74,0.00,,,0.21,Wunderground v.1.15,2013-06-01 22:42:00,
2013-06-01 18:48:00,73.1,63.9,29.74,West,281,1.0,6.0,73,0.00,,,0.21,Wunderground v.1.15,2013-06-01 22:48:00,
2013-06-01 18:53:00,73.0,64.2,29.74,West,281,0.0,1.0,74,0.00,,,0.21,Wunderground v.1.15,2013-06-01 22:53:00,
2013-06-01 18:59:00,72.9,64.5,29.74,South,190,1.0,4.0,75,0.00,,,0.21,Wunderground v.1.15,2013-06-01 22:59:00,
2013-06-01 19:05:00,72.7,64.3,29.74,SSW,192,2.0,11.0,75,0.00,,,0.21,Wunderground v.1.15,2013-06-01 23:05:00,
2013-06-01 19:10:00,72.5,64.9,29.74,SSW,195,2.0,7.0,77,0.00,,,0.21,Wunderground v.1.15,2013-06-01 23:10:00,
2013-06-01 19:15:00,72.2,64.2,29.74,SSW,197,1.0,7.0,76,0.00,,,0.21,Wunderground v.1.15,2013-06-01 23:15:00,
2013-06-01 19:21:00,71.9,63.9,29.75,SSW,199,1.0,2.0,76,0.00,,,0.21,Wunderground v.1.15,2013-06-01 23:21:00,
2013-06-01 19:26:00,71.7,64.1,29.74,SSW,207,1.0,6.0,77,0.00,,,0.21,Wunderground v.1.15,2013-06-01 23:26:00,
2013-06-01 19:32:00,71.4,64.2,29.74,SSW,207,1.0,4.0,78,0.00,,,0.21,Wunderground v.1.15,2013-06-01 23:32:00,
2013-06-01 19:38:00,71.1,64.3,29.73,SW,232,1.0,4.0,79,0.00,,,0.21,Wunderground v.1.15,2013-06-01 23:38:00,
2013-06-01 19:43:00,70.9,63.7,29.74,SSW,205,1.0,3.0,78,0.00,,,0.21,Wunderground v.1.15,2013-06-01 23:43:00,
2013-06-01 19:49:00,70.6,63.8,29.74,SSW,201,1.0,1.0,79,0.00,,,0.21,Wunderground v.1.15,2013-06-01 23:49:00,
2013-06-01 19:54:00,70.4,63.6,29.74,SSW,208,1.0,4.0,79,0.00,,,0.21,Wunderground v.1.15,2013-06-01 23:54:00,
2013-06-01 19:59:00,70.3,63.5,29.74,SSW,209,1.0,1.0,79,0.00,,,0.21,Wunderground v.1.15,2013-06-01 23:59:00,
2013-06-01 20:04:00,70.1,63.6,29.74,SSW,209,0.0,1.0,80,0.00,,,0.21,Wunderground v.1.15,2013-06-02 00:04:00,
2013-06-01 20:10:00,70.0,63.5,29.74,SW,233,0.0,1.0,80,0.00,,,0.21,Wunderground v.1.15,2013-06-02 00:10:00,
2013-06-01 20:15:00,69.9,63.4,29.74,SW,232,0.0,2.0,80,0.00,,,0.21,Wunderground v.1.15,2013-06-02 00:15:00,
2013-06-01 20:20:00,69.8,63.3,29.74,SW,232,0.0,0.0,80,0.00,,,0.21,Wunderground v.1.15,2013-06-02 00:20:00,
2013-06-01 20:26:00,69.7,63.3,29.74,SW,229,0.0,2.0,80,0.00,,,0.21,Wunderground v.1.15,2013-06-02 00:26:00,
2013-06-01 20:32:00,69.7,63.3,29.73,SW,221,1.0,1.0,80,0.00,,,0.21,Wunderground v.1.15,2013-06-02 00:32:00,
2013-06-01 20:38:00,69.6,63.5,29.73,SW,221,0.0,1.0,81,0.00,,,0.21,Wunderground v.1.15,2013-06-02 00:38:00,
2013-06-01 20:43:00,69.5,63.4,29.73,SW,221,0.0,0.0,81,0.00,,,0.21,Wunderground v.1.15,2013-06-02 00:43:00,
2013-06-01 20:49:00,69.5,63.4,29.73,SW,221,0.0,1.0,81,0.00,,,0.21,Wunderground v.1.15,2013-06-02 00:49:00,
2013-06-01 20:54:00,69.4,63.3,29.72,SW,221,0.0,3.0,81,0.00,,,0.21,Wunderground v.1.15,2013-06-02 00:54:00,
2013-06-01 21:00:00,69.4,63.3,29.72,SW,221,0.0,1.0,81,0.00,,,0.21,Wunderground v.1.15,2013-06-02 01:00:00,
2013-06-01 21:05:00,69.3,63.6,29.72,SW,221,0.0,1.0,82,0.00,,,0.21,Wunderground v.1.15,2013-06-02 01:05:00,
2013-06-01 21:10:00,69.3,63.6,29.72,SW,221,0.0,0.0,82,0.00,,,0.21,Wunderground v.1.15,2013-06-02 01:10:00,
2013-06-01 21:16:00,69.2,63.5,29.72,SW,221,0.0,0.0,82,0.00,,,0.21,Wunderground v.1.15,2013-06-02 01:16:00,
2013-06-01 21:21:00,69.1,63.7,29.72,SW,221,0.0,0.0,83,0.00,,,0.21,Wunderground v.1.15,2013-06-02 01:21:00,
2013-06-01 21:26:00,69.0,63.6,29.72,SW,221,0.0,0.0,83,0.00,,,0.21,Wunderground v.1.15,2013-06-02 01:26:00,
2013-06-01 21:32:00,69.0,63.6,29.72,SW,221,0.0,2.0,83,0.00,,,0.21,Wunderground v.1.15,2013-06-02 01:32:00,
2013-06-01 21:38:00,69.0,63.6,29.72,SW,215,1.0,2.0,83,0.00,,,0.21,Wunderground v.1.15,2013-06-02 01:38:00,
2013-06-01 21:43:00,68.9,63.5,29.72,SSW,213,1.0,4.0,83,0.00,,,0.21,Wunderground v.1.15,2013-06-02 01:43:00,
2013-06-01 21:49:00,68.8,63.4,29.71,SW,214,1.0,1.0,83,0.00,,,0.21,Wunderground v.1.15,2013-06-02 01:49:00,
2013-06-01 21:54:00,68.8,63.4,29.71,SSW,198,1.0,3.0,83,0.00,,,0.21,Wunderground v.1.15,2013-06-02 01:54:00,
2013-06-01 22:00:00,68.6,63.2,29.71,SSW,198,1.0,1.0,83,0.00,,,0.21,Wunderground v.1.15,2013-06-02 02:00:00,
2013-06-01 22:05:00,68.6,63.2,29.71,SSW,196,1.0,2.0,83,0.00,,,0.21,Wunderground v.1.15,2013-06-02 02:05:00,
2013-06-01 22:11:00,68.4,63.0,29.71,SSW,213,1.0,2.0,83,0.00,,,0.21,Wunderground v.1.15,2013-06-02 02:11:00,
2013-06-01 22:16:00,68.3,62.9,29.71,SSW,213,1.0,2.0,83,0.00,,,0.21,Wunderground v.1.15,2013-06-02 02:16:00,
2013-06-01 22:21:00,68.2,62.8,29.71,SSW,213,0.0,0.0,83,0.00,,,0.21,Wunderground v.1.15,2013-06-02 02:21:00,
2013-06-01 22:26:00,68.0,63.0,29.71,SSW,213,0.0,3.0,84,0.00,,,0.21,Wunderground v.1.15,2013-06-02 02:26:00,
2013-06-01 22:32:00,67.7,62.7,29.71,SSW,213,0.0,0.0,84,0.00,,,0.21,Wunderground v.1.15,2013-06-02 02:32:00,
2013-06-01 22:38:00,67.6,62.9,29.71,SSW,213,0.0,2.0,85,0.00,,,0.21,Wunderground v.1.15,2013-06-02 02:38:00,
2013-06-01 22:43:00,67.5,62.8,29.70,SSW,212,1.0,3.0,85,0.00,,,0.21,Wunderground v.1.15,2013-06-02 02:43:00,
2013-06-01 22:49:00,67.4,62.7,29.70,SSW,213,1.0,1.0,85,0.00,,,0.21,Wunderground v.1.15,2013-06-02 02:49:00,
2013-06-01 22:54:00,67.4,63.1,29.70,SSW,213,1.0,2.0,86,0.00,,,0.21,Wunderground v.1.15,2013-06-02 02:54:00,
2013-06-01 23:00:00,67.3,63.0,29.70,SSW,205,2.0,5.0,86,0.00,,,0.21,Wunderground v.1.15,2013-06-02 03:00:00,
2013-06-01 23:05:00,67.3,63.0,29.69,SSW,203,2.0,5.0,86,0.00,,,0.21,Wunderground v.1.15,2013-06-02 03:05:00,
2013-06-01 23:10:00,67.2,62.9,29.69,SSW,210,2.0,2.0,86,0.00,,,0.21,Wunderground v.1.15,2013-06-02 03:10:00,
2013-06-01 23:15:00,67.2,62.9,29.69,SSW,194,2.0,4.0,86,0.00,,,0.21,Wunderground v.1.15,2013-06-02 03:15:00,
2013-06-01 23:21:00,67.1,62.8,29.68,SSW,202,2.0,4.0,86,0.00,,,0.21,Wunderground v.1.15,2013-06-02 03:21:00,
2013-06-01 23:27:00,67.0,62.7,29.68,SSW,205,2.0,6.0,86,0.00,,,0.21,Wunderground v.1.15,2013-06-02 03:27:00,
2013-06-01 23:32:00,67.0,62.7,29.67,SSW,194,2.0,3.0,86,0.00,,,0.21,Wunderground v.1.15,2013-06-02 03:32:00,
2013-06-01 23:38:00,66.9,62.6,29.67,SSW,197,2.0,4.0,86,0.00,,,0.21,Wunderground v.1.15,2013-06-02 03:38:00,
2013-06-01 23:43:00,66.7,62.4,29.67,SSW,198,1.0,2.0,86,0.00,,,0.21,Wunderground v.1.15,2013-06-02 03:43:00,
2013-06-01 23:49:00,66.5,62.5,29.67,SSW,198,0.0,0.0,87,0.00,,,0.21,Wunderground v.1.15,2013-06-02 03:49:00,
2013-06-01 23:54:00,66.2,62.2,29.67,SSW,198,0.0,0.0,87,0.00,,,0.21,Wunderground v.1.15,2013-06-02 03:54:00,
2013-06-01 23:59:00,66.0,62.0,29.67,SSW,198,0.0,0.0,87,0.00,,,0.21,Wunderground v.1.15,2013-06-02 03:59:00,